Theta_e
310 311 311 311 312 312 312 312 312 312 312 312 312 312 312 313 313 313 314 314 315 315 315 316 316 317 318 323 323 332 322 324 320 318 326 328 329 329 324 323 325 325 326 332 334 339 339
309 309 309 310 310 310 311 311 311 311 312 312 312 312 312 312 312 313 313 314 314 315 315 316 316 317 318 329 330 328 325 324 321 318 329 329 327 326 325 324 324 326 329 331 335 335 336
309 309 309 309 310 310 310 310 310 310 311 311 312 312 312 312 312 313 313 313 314 314 315 316 316 317 317 319 328 328 323 325 325 319 325 326 326 325 325 325 329 332 330 329 334 336 335
307 308 308 309 309 310 310 310 310 310 311 311 311 312 313 313 314 314 313 313 314 314 315 316 316 317 318 328 329 328 324 326 326 327 326 326 326 326 326 330 332 331 329 333 334 335 336
306 306 306 307 308 309 309 310 310 311 311 311 312 312 313 314 315 315 315 313 314 315 315 318 317 327 324 329 329 328 327 324 328 328 327 325 325 328 330 329 326 325 330 336 334 334 336
306 306 306 306 306 306 307 308 309 310 311 312 312 313 313 314 315 314 315 320 324 326 324 323 319 324 321 328 329 329 327 328 328 326 325 324 326 325 323 324 328 330 337 336 336 335 335
306 306 306 306 306 306 306 306 306 307 309 311 311 313 314 314 314 314 316 322 321 326 320 322 324 320 322 328 329 328 326 328 328 325 322 324 323 323 323 324 328 328 328 334 335 335 336
305 305 305 305 305 306 306 306 306 307 307 307 308 310 313 314 314 314 319 320 320 318 318 319 318 320 324 328 325 327 326 325 326 324 323 322 322 323 325 326 327 327 326 327 331 336 335
304 304 304 305 305 305 305 305 306 306 306 307 307 307 309 311 314 315 320 319 318 318 318 319 318 319 325 327 323 328 326 326 326 325 325 322 323 325 325 324 324 322 323 323 324 327 334
304 304 304 304 304 304 305 305 305 305 306 306 307 307 307 309 310 314 319 319 318 318 315 320 320 320 321 324 322 329 328 327 324 325 325 324 326 326 326 325 323 321 322 323 324 326 325
303 304 304 304 304 304 305 305 305 306 306 306 306 307 307 307 310 316 318 318 319 319 315 323 321 323 321 322 323 327 330 326 323 325 324 326 329 327 328 328 325 322 323 322 326 327 325
303 303 303 304 304 304 304 305 305 306 306 307 307 307 308 307 309 313 316 317 317 317 317 324 322 321 320 322 323 323 327 327 325 324 324 325 327 327 327 327 326 325 325 322 323 321 323
304 304 304 304 304 304 304 305 305 306 306 306 307 307 308 307 309 316 317 316 313 319 320 322 321 320 319 319 320 321 325 324 324 325 324 325 327 327 328 325 324 324 320 321 323 324 325
303 304 304 304 305 305 304 305 306 306 307 306 307 307 308 308 308 314 316 312 318 319 318 319 319 321 320 320 320 321 324 325 324 326 325 327 328 327 328 325 324 323 320 321 326 327 329
302 304 304 305 305 305 305 305 306 307 306 307 306 307 308 308 308 312 317 314 314 318 320 319 318 321 319 321 321 320 321 326 326 324 326 325 327 328 328 327 324 324 324 321 322 323 324
301 302 304 304 304 305 305 305 306 307 306 307 306 309 309 312 308 315 313 315 316 318 317 317 319 319 319 319 320 319 319 321 326 327 323 323 325 326 327 328 324 323 322 323 319 326 326
300 301 303 303 302 303 304 304 305 307 305 306 307 314 316 312 309 316 312 313 315 316 317 316 316 317 318 318 318 318 319 322 322 322 324 321 323 327 328 327 324 325 324 321 319 321 324
299 300 301 301 301 301 303 304 304 305 305 307 311 312 316 316 314 311 311 315 316 316 316 316 317 316 317 318 317 318 320 322 324 323 323 322 321 324 325 326 327 324 324 320 321 322 327
299 302 300 299 300 301 301 302 304 304 305 306 308 315 316 316 312 310 311 314 315 315 315 316 316 318 318 317 317 319 321 323 322 328 322 322 321 324 324 323 325 327 324 323 320 321 324
300 301 300 300 300 300 300 301 304 304 305 307 312 314 317 317 317 315 316 316 317 318 317 317 316 316 316 318 315 316 318 320 321 324 328 328 320 322 324 324 328 331 331 328 324 324 323
300 300 300 300 300 300 300 300 303 304 309 312 314 314 314 313 314 314 317 319 318 317 318 319 318 316 317 318 317 316 316 318 321 325 325 324 326 330 328 332 334 334 332 333 330 326 326
300 301 301 300 299 299 299 299 301 303 310 313 312 311 312 312 313 312 315 319 321 320 319 317 317 319 317 315 316 317 317 319 323 327 327 322 323 333 333 333 334 335 334 335 335 335 327
299 299 299 298 296 296 296 297 299 302 303 308 307 308 310 311 308 310 312 318 320 321 323 324 323 318 318 316 317 324 326 323 323 329 329 333 325 328 332 333 334 333 333 335 335 334 331
296 296 297 298 295 295 295 295 297 300 299 306 307 308 310 311 311 312 314 318 318 321 322 324 324 322 324 324 325 325 326 324 325 324 328 333 334 328 329 330 335 331 333 333 336 346 337
295 294 294 294 295 295 295 296 296 299 298 301 306 307 308 307 311 312 312 315 316 316 320 322 324 324 324 323 320 321 321 320 324 325 326 329 332 335 333 332 332 334 334 335 339 348 339
294 294 294 295 296 298 294 296 296 297 298 302 305 305 306 307 308 310 312 313 312 312 316 322 322 324 323 316 319 323 325 323 325 326 324 323 328 332 333 337 338 332 332 335 333 343 341
295 294 296 296 295 295 294 294 295 294 296 302 304 304 303 305 307 310 310 309 313 313 316 320 318 324 325 316 319 320 322 323 324 328 326 321 325 329 333 335 332 342 345 338 331 329 342
297 295 295 295 294 294 295 294 294 293 293 297 302 302 301 302 303 304 304 308 311 313 315 316 321 320 323 323 318 318 320 319 322 328 335 324 323 327 329 333 334 339 345 344 341 346 342
295 294 294 294 293 294 294 295 294 294 293 296 302 302 301 300 302 304 305 308 309 310 309 314 319 319 324 320 322 321 328 325 328 333 329 333 330 333 330 329 338 337 340 344 344 344 343
Wind_Speed
6 6 6 5 6 6 7 7 7 8 8 8 8 9 9 10 11 11 11 11 12 12 12 11 10 9 9 5 4 3 1 2 3 8 14 9 6 3 3 4 11 4 8 17 17 14 15
7 7 7 7 6 7 7 8 8 8 8 9 9 9 10 11 11 12 12 11 11 12 12 11 10 9 8 4 2 5 4 3 4 8 12 8 4 4 10 5 0 11 21 18 6 14 11
8 8 8 8 8 8 7 8 9 9 9 9 9 9 10 10 11 12 12 13 12 12 12 11 10 10 10 9 5 5 3 4 3 6 11 7 3 7 10 9 11 18 6 9 3 1 4
7 8 8 8 8 8 8 8 9 10 9 10 10 9 9 10 11 12 13 14 13 13 12 10 9 9 8 4 7 8 5 5 9 7 1 5 9 12 7 8 10 6 5 4 8 4 5
8 8 8 8 7 8 8 9 9 10 10 11 11 9 9 10 11 12 14 16 15 13 11 9 8 6 6 9 14 11 6 6 6 3 4 9 10 6 5 3 5 5 3 6 9 4 3
9 9 9 8 8 8 9 9 10 11 12 11 12 11 10 9 11 12 14 17 8 6 6 8 9 6 10 13 15 16 8 7 4 2 5 5 2 1 3 4 4 5 2 5 8 5 5
10 9 10 10 9 9 8 9 11 11 12 12 14 13 12 10 10 13 10 11 6 2 13 9 3 7 10 7 9 14 12 11 10 3 2 3 3 7 9 9 7 5 4 8 7 8 1
10 10 9 9 9 10 11 11 12 12 13 14 15 15 14 11 8 10 8 7 8 10 12 19 21 26 26 11 7 14 14 12 9 5 2 4 8 13 6 8 8 8 7 6 8 7 4
10 10 10 11 11 11 12 12 13 13 14 14 14 14 15 13 9 5 5 9 7 10 5 16 18 26 28 22 16 20 22 19 4 5 5 7 9 4 6 10 8 6 4 6 6 4 1
10 10 11 11 11 12 12 12 13 14 15 15 14 13 14 11 6 7 3 2 1 6 3 7 6 13 23 23 7 22 27 19 5 11 8 7 16 15 14 7 5 5 10 5 6 4 2
12 11 11 12 13 13 13 14 15 16 16 15 15 14 10 10 6 5 5 3 4 3 3 2 5 3 18 16 5 18 28 22 9 7 6 9 4 3 5 10 6 10 6 6 4 3 2
13 13 13 13 14 14 15 16 16 17 17 17 15 15 12 10 9 6 6 1 2 4 6 5 4 7 7 12 11 5 26 23 14 4 7 9 19 4 7 12 9 4 2 6 5 3 4
15 15 14 15 15 16 16 17 17 17 18 19 15 14 16 12 3 6 3 3 4 3 5 3 2 4 6 7 8 5 7 7 6 3 5 6 11 9 12 7 4 5 6 4 5 5 6
14 14 14 15 16 16 16 17 18 17 18 20 15 15 17 13 12 7 7 5 4 6 7 5 7 5 4 5 6 5 8 7 7 3 3 3 8 10 4 10 8 5 8 6 5 3 6
17 14 14 15 16 16 17 17 18 17 18 22 16 12 16 8 14 13 9 3 7 6 4 7 8 0 4 6 5 8 10 14 13 11 9 6 8 3 4 5 9 5 3 7 6 2 3
16 15 16 16 17 17 18 20 19 18 18 21 17 10 12 9 18 17 4 5 5 2 6 5 1 3 6 8 1 5 7 9 12 18 10 8 6 15 19 6 5 10 5 3 3 2 4
16 14 15 18 18 18 19 20 21 19 18 17 9 8 2 19 20 10 3 6 5 7 13 6 4 5 2 1 2 1 5 7 18 15 18 7 5 19 3 4 6 3 1 4 5 6 5
17 16 16 17 18 18 18 20 22 22 19 15 3 2 18 23 5 3 2 3 8 6 19 6 4 6 6 1 2 4 4 1 19 24 11 13 7 8 12 5 6 8 10 6 5 6 3
14 17 17 16 16 18 17 18 20 21 22 22 11 5 18 22 3 2 6 5 9 11 8 5 5 3 5 1 3 3 5 11 15 4 7 8 4 1 10 7 6 3 6 4 5 4 5
13 16 17 16 17 18 18 18 19 18 17 14 4 4 2 14 7 2 3 5 5 11 12 17 9 8 5 3 4 6 6 9 24 13 12 8 4 9 9 7 2 5 7 2 7 4 5
14 16 17 18 18 18 18 18 18 17 12 7 6 3 7 3 5 6 2 4 6 7 6 4 7 6 7 3 5 6 6 7 10 4 7 4 2 3 5 3 1 2 5 7 2 5 6
14 16 17 18 19 20 18 16 16 16 7 9 4 6 9 8 13 6 2 3 3 8 5 9 3 14 8 7 9 8 6 2 6 7 6 4 3 1 4 4 5 3 10 3 14 18 4
16 16 17 18 20 20 18 16 14 13 13 5 6 3 2 6 7 3 2 8 9 12 7 12 12 8 7 10 16 12 12 8 5 4 4 3 2 3 3 4 4 3 4 3 3 2 6
16 15 15 18 18 18 17 15 12 10 12 9 8 5 3 4 2 3 10 9 12 9 4 13 19 2 6 15 6 8 3 4 3 5 3 3 2 2 3 4 3 7 4 3 3 4 5
16 15 15 15 14 14 16 15 13 7 6 4 5 3 2 2 6 7 13 8 14 19 5 5 17 23 19 10 3 4 5 6 1 2 2 3 3 2 4 3 4 6 3 2 2 4 6
16 15 13 14 13 14 14 14 13 8 5 3 3 4 2 1 5 10 6 6 4 5 6 3 19 15 8 3 4 3 4 5 3 1 2 5 5 3 2 3 4 7 6 17 4 0 6
15 12 13 13 12 13 13 13 13 10 4 2 3 4 3 4 11 4 2 4 5 5 3 6 17 13 17 3 3 0 2 3 2 0 1 3 2 5 2 3 5 7 16 8 4 7 6
16 13 14 14 13 12 11 12 12 12 6 1 2 1 3 5 19 18 17 13 8 2 0 9 4 9 7 6 2 3 1 3 1 2 2 3 3 3 2 2 7 25 5 5 4 9 3
15 12 12 13 13 11 12 11 11 11 9 2 8 5 9 12 12 15 19 17 16 11 6 5 2 1 3 3 3 3 3 3 1 1 4 1 4 4 3 3 1 8 6 9 11 11 7
Wind_Direction
336 335 340 340 338 337 335 335 333 335 337 333 335 336 335 333 332 330 330 330 327 325 329 331 326 324 327 303 252 297 330 172 183 170 168 165 235 225 254 292 328 245 280 315 319 262 285
336 332 332 330 327 326 327 323 321 324 326 325 330 331 334 332 332 326 325 321 319 316 318 323 318 312 311 281 306 329 265 213 194 176 170 187 203 286 283 287 86 295 309 300 1 34 32
341 334 331 332 328 325 322 318 316 318 320 324 322 329 332 332 333 327 324 316 313 307 307 312 307 303 288 269 277 305 312 214 223 182 159 164 287 278 312 324 328 302 307 323 272 163 212
341 337 335 334 330 325 324 318 314 317 318 319 316 324 327 330 332 328 326 315 307 298 297 299 294 296 267 263 239 268 274 190 138 143 217 324 315 277 280 308 326 338 34 1 262 194 155
349 345 339 335 331 322 320 320 317 317 315 313 311 317 318 324 330 329 327 317 306 292 285 283 280 270 263 218 229 252 257 183 132 141 288 315 290 282 275 69 357 4 250 259 308 131 173
16 10 5 354 340 330 323 320 315 318 313 308 308 308 307 315 325 329 335 331 325 307 280 268 250 289 232 222 230 238 227 188 202 204 268 269 277 27 22 81 218 200 175 291 267 296 71
19 21 15 14 9 360 344 329 321 317 312 306 304 300 297 300 317 328 349 5 354 310 314 253 262 253 264 297 238 216 205 211 229 191 183 274 76 235 214 207 244 269 216 233 265 260 355
18 19 17 12 9 2 355 349 337 324 313 310 304 298 292 287 296 319 356 21 14 330 298 278 264 257 250 235 282 198 193 204 187 194 213 346 248 240 229 242 238 261 267 245 279 255 148
19 16 13 9 4 0 354 350 344 337 329 322 312 305 295 284 279 292 357 46 351 310 281 288 245 236 234 234 235 202 189 206 162 195 208 193 242 327 216 267 270 266 239 277 270 316 233
20 7 1 359 355 351 349 346 342 335 333 330 319 310 305 297 262 237 169 9 310 319 20 272 221 236 216 217 248 215 201 190 222 206 224 239 256 253 272 243 225 248 254 250 286 32 232
11 1 355 350 346 342 338 336 334 332 331 327 322 311 305 300 242 207 228 290 289 330 347 245 192 237 196 173 160 197 205 190 190 202 137 244 275 263 261 254 219 237 257 257 247 207 68
2 355 350 346 341 335 333 330 328 327 323 316 311 309 296 291 262 224 247 262 213 44 254 316 163 170 110 201 225 102 176 200 221 216 255 247 277 255 249 273 242 250 279 47 35 64 11
356 351 348 342 340 335 331 329 327 325 322 313 303 294 284 271 254 164 155 209 54 162 320 290 262 163 173 186 218 137 152 181 180 172 271 318 283 280 263 273 305 90 60 353 352 5 227
352 350 347 346 342 337 331 329 329 327 326 312 306 285 266 257 210 186 163 63 185 233 262 315 354 317 190 171 232 173 148 188 249 149 110 198 314 235 246 208 191 196 153 156 200 212 260
358 356 353 351 350 347 341 335 331 329 330 316 313 284 262 229 195 182 164 126 208 219 315 356 334 345 262 234 175 191 177 201 208 182 176 179 259 260 283 298 162 239 174 198 144 78 52
358 357 354 350 350 351 350 345 338 335 336 323 322 304 260 180 177 171 95 225 237 279 2 359 312 47 15 338 177 163 200 204 214 204 175 222 274 273 278 299 258 159 166 65 19 187 285
356 354 354 353 347 348 351 351 346 341 343 331 324 325 87 160 160 161 175 235 289 315 2 2 327 284 250 325 301 208 221 265 212 209 190 170 154 268 71 196 221 75 226 66 119 138 169
357 355 354 353 352 347 350 353 354 346 350 358 14 9 155 150 107 185 215 240 327 322 316 290 259 240 231 18 301 319 240 301 317 218 159 202 171 233 244 243 197 190 211 158 130 254 182
356 357 355 353 348 350 352 353 359 355 349 356 343 303 178 170 132 255 277 261 254 277 270 274 323 331 320 142 321 234 297 303 324 297 192 179 210 273 321 347 349 185 191 173 106 80 199
351 354 356 352 347 348 352 354 360 356 344 348 2 13 64 220 266 123 324 279 273 291 288 252 259 283 271 296 183 274 286 303 323 326 328 104 129 170 198 208 180 333 316 244 134 121 208
345 345 344 344 344 345 347 353 359 6 8 32 26 11 11 332 340 333 288 279 283 296 260 326 318 216 236 262 331 272 284 310 312 329 359 69 150 157 161 205 153 280 300 2 326 241 156
345 346 344 346 345 345 346 350 357 9 21 51 45 11 351 304 314 349 313 260 267 302 241 293 297 304 238 194 188 272 295 257 267 334 14 11 274 84 350 26 37 13 325 349 332 308 204
328 328 332 344 350 351 349 349 357 4 19 68 36 11 339 297 324 343 336 350 343 4 314 330 315 280 298 263 238 224 269 244 241 318 330 49 114 70 282 352 27 18 267 227 243 291 196
329 325 325 330 338 345 352 354 359 13 23 46 44 30 11 285 312 338 316 336 336 349 259 312 330 212 313 320 252 237 264 290 55 1 74 24 77 102 200 46 240 239 265 270 132 18 320
335 337 334 334 341 350 359 0 0 19 25 33 31 66 15 276 309 314 335 331 339 352 333 299 347 322 324 313 30 38 346 3 274 248 8 97 97 75 141 177 279 329 316 308 105 343 56
336 336 345 353 357 351 357 360 360 8 20 57 89 31 235 307 222 329 294 352 343 323 324 334 340 329 336 72 42 144 189 228 284 207 60 85 100 128 124 160 208 231 303 304 139 342 112
335 334 336 338 345 346 351 353 354 358 9 39 128 46 331 262 272 306 9 291 322 334 283 323 337 340 12 35 47 121 261 203 230 180 285 345 355 183 197 206 283 335 321 337 126 237 144
323 324 328 328 335 341 346 345 349 352 359 246 98 39 335 264 279 267 266 257 278 256 40 322 11 1 357 32 55 263 186 264 92 36 351 212 171 211 119 134 273 351 12 79 240 352 113
317 321 326 332 331 335 335 337 339 344 347 183 206 241 279 274 267 276 267 248 246 247 293 344 122 135 20 5 360 322 350 17 27 194 349 300 193 179 143 179 266 10 64 92 77 74 77